,,PA_Meas_PMT16A,,PR_Meas_QMR101_102,,RH_Meas_QMH101,,SR_Meas_QMS101,,TA_Meas_QMH101,,GenWind,,GenWind,
time,status,PA,status,PR,status,RH,status,SR,status,TA,status,DirAvg,status,SpdAvg,
2016-11-24, 14:46:05,INVALID - VALUE NOT AVAILABLE,0,INVALID - VALUE NOT AVAILABLE,0,INVALID - VALUE NOT AVAILABLE,0,INVALID - VALUE NOT AVAILABLE,0,INVALID - VALUE NOT AVAILABLE,0,INVALID,360,INVALID,0,
2016-11-24, 15:28:04,VALID,917.934,VALID,0,INVALID,115.266,VALID,146.12,VALID,20.3869,VALID,27,VALID,0.863281,
2016-11-24, 15:29:04,VALID,917.934,VALID,0,INVALID,115.213,VALID,167.931,VALID,20.465,VALID,337,VALID,0.110937,
2016-11-24, 15:30:04,VALID,917.899,VALID,0,INVALID,115.35,VALID,166.211,VALID,20.3464,VALID,275,VALID,0.349219,
2016-11-24, 15:31:04,VALID,917.937,VALID,0,INVALID,115.426,VALID,161.914,VALID,20.3659,VALID,4,VALID,0.139844,
2016-11-24, 15:32:04,VALID,917.914,VALID,0,INVALID,115.365,VALID,161.269,VALID,20.4439,VALID,18,VALID,1.4207,
2016-11-24, 15:33:04,VALID,917.898,VALID,0,INVALID,115.396,VALID,161.484,VALID,20.5235,VALID,17,VALID,1.69453,
2016-11-24, 15:34:04,VALID,917.909,VALID,0,INVALID,115.601,VALID,157.401,VALID,20.465,VALID,14,VALID,1.06914,
2016-11-24, 15:35:04,VALID,917.927,VALID,0,INVALID,115.655,VALID,151.814,VALID,20.4244,VALID,20,VALID,1.20195,
2016-11-24, 15:36:04,VALID,917.926,VALID,0,INVALID,115.67,VALID,146.335,VALID,20.4439,VALID,15,VALID,1.26484,
2016-11-24, 15:39:04,VALID,917.946,VALID,0,INVALID,115.823,VALID,146.979,VALID,20.4244,VALID,204,VALID,0,
2016-11-24, 15:40:04,VALID,917.967,VALID,0,INVALID,115.891,VALID,173.303,VALID,20.4439,VALID,154,VALID,0,
2016-11-24, 15:41:04,VALID,917.95,VALID,0,INVALID,115.876,VALID,155.575,VALID,20.4829,VALID,21,VALID,1.05234,
2016-11-24, 15:42:04,VALID,917.954,VALID,0,INVALID,115.876,VALID,149.451,VALID,20.4829,VALID,336,VALID,0,
2016-11-24, 15:43:04,VALID,917.978,VALID,0,INVALID,116.196,VALID,184.369,VALID,20.4049,VALID,305,VALID,0.990625,
2016-11-24, 15:44:04,VALID,917.945,VALID,0,INVALID,116.341,VALID,201.022,VALID,20.3659,VALID,274,VALID,0.622266,
2016-11-24, 15:45:04,VALID,917.988,VALID,0,INVALID,116.371,VALID,196.725,VALID,20.4064,VALID,336,VALID,0.427344,
2016-11-24, 15:46:04,VALID,917.949,VALID,0,INVALID,116.242,VALID,202.204,VALID,20.4829,VALID,337,VALID,0.574609,
2016-11-24, 15:47:04,VALID,917.924,VALID,0,INVALID,116.28,VALID,195.435,VALID,20.5414,VALID,354,VALID,0.567187,
2016-11-24, 15:48:04,VALID,917.926,VALID,0,INVALID,116.326,VALID,199.196,VALID,20.5594,VALID,310,VALID,0.0625,
2016-11-24, 15:49:04,VALID,917.946,VALID,0,INVALID,116.486,VALID,230.246,VALID,20.5009,VALID,262,VALID,0.517578,
2016-11-24, 15:50:04,VALID,917.914,VALID,0,INVALID,116.615,VALID,243.999,VALID,20.5609,VALID,298,VALID,0,
2016-11-24, 15:51:04,VALID,917.96,VALID,0,INVALID,116.532,VALID,239.486,VALID,20.6374,VALID,258,VALID,1.18711,
2016-11-24, 15:52:04,VALID,917.967,VALID,0,INVALID,116.57,VALID,221.221,VALID,20.7349,VALID,230,VALID,0.361328,
2016-11-24, 15:53:04,VALID,917.939,VALID,0,INVALID,117.019,VALID,184.691,VALID,20.639,VALID,250,VALID,1.48242,
2016-11-24, 15:54:04,VALID,917.978,VALID,0,INVALID,117.233,VALID,162.666,VALID,20.6194,VALID,264,VALID,0.761328,
2016-11-24, 15:55:04,VALID,917.975,VALID,0,INVALID,117.408,VALID,176.526,VALID,20.639,VALID,38,VALID,1.25469,
2016-11-24, 15:56:04,VALID,917.993,VALID,0,INVALID,117.454,VALID,175.344,VALID,20.7185,VALID,313,VALID,0.801172,
2016-11-24, 15:57:04,VALID,917.99,VALID,0,INVALID,117.866,VALID,164.278,VALID,20.6585,VALID,2,VALID,1.00234,
2016-11-24, 15:58:04,VALID,917.987,VALID,0,INVALID,117.828,VALID,140.211,VALID,20.6975,VALID,316,VALID,0.612109,
2016-11-24, 16:05:04,VALID,918.084,VALID,0,INVALID,119.52,VALID,144.831,VALID,20.5999,VALID,30,VALID,0.722266,
2016-11-24, 16:06:04,VALID,918.091,VALID,0,INVALID,120.015,VALID,145.69,VALID,20.5235,VALID,244,VALID,0.932031,
2016-11-24, 16:16:04,VALID,918.073,VALID,0,INVALID,122.44,VALID,138.062,VALID,20.5999,VALID,348,VALID,0.894922,
2016-11-24, 16:17:04,VALID,918.102,VALID,0,INVALID,122.478,VALID,158.153,VALID,20.6975,VALID,314,VALID,0.445313,
2016-11-24, 16:18:04,VALID,918.079,VALID,0,INVALID,122.783,VALID,172.55,VALID,20.7365,VALID,253,VALID,0,
2016-11-24, 16:19:04,VALID,918.109,VALID,0,INVALID,123.24,VALID,181.683,VALID,20.678,VALID,269,VALID,1.15547,
2016-11-24, 16:20:04,VALID,918.092,VALID,0,INVALID,123.255,VALID,180.931,VALID,20.7755,VALID,263,VALID,0,
2016-11-24, 16:21:04,VALID,918.094,VALID,0,INVALID,123.377,VALID,174.699,VALID,20.8145,VALID,349,VALID,0.255078,
2016-11-24, 16:22:04,VALID,918.113,VALID,0,INVALID,123.438,VALID,171.261,VALID,20.873,VALID,350,VALID,0,
2016-11-24, 16:23:04,VALID,918.12,VALID,0,INVALID,123.698,VALID,178.137,VALID,20.8925,VALID,208,VALID,0.772266,
2016-11-24, 16:24:04,VALID,918.105,VALID,0,INVALID,123.797,VALID,174.807,VALID,20.9316,VALID,146,VALID,0.319922,
2016-11-24, 16:25:04,VALID,918.132,VALID,0,INVALID,123.888,VALID,176.741,VALID,20.9901,VALID,356,VALID,0.445703,
2016-11-24, 16:26:04,VALID,918.161,VALID,0,INVALID,124.163,VALID,188.559,VALID,20.9316,VALID,285,VALID,1.05234,
2016-11-24, 16:27:04,VALID,918.14,VALID,0,INVALID,124.163,VALID,212.089,VALID,20.9901,VALID,26,VALID,0.708594,
2016-11-24, 16:28:04,VALID,918.166,VALID,0,INVALID,124.201,VALID,237.767,VALID,21.0486,VALID,154,VALID,0.0121094,
2016-11-24, 16:29:04,VALID,918.134,VALID,0,INVALID,124.254,VALID,251.842,VALID,21.0681,VALID,201,VALID,0.257813,
2016-11-24, 16:30:04,VALID,918.138,VALID,0,INVALID,124.201,VALID,271.289,VALID,21.1657,VALID,200,VALID,0,
2016-11-24, 16:31:04,VALID,918.094,VALID,0,INVALID,124.323,VALID,279.025,VALID,21.2242,VALID,20,VALID,1.67109,
2016-11-24, 16:32:04,VALID,918.099,VALID,0,INVALID,124.346,VALID,289.984,VALID,21.0876,VALID,353,VALID,1.14063,
2016-11-24, 16:33:04,VALID,918.109,VALID,0,INVALID,124.224,VALID,296.645,VALID,21.1657,VALID,338,VALID,0.834766,
2016-11-24, 16:34:04,VALID,918.052,VALID,0,INVALID,124.224,VALID,308.249,VALID,21.2421,VALID,16,VALID,1.67109,
2016-11-24, 16:35:04,VALID,918.066,VALID,0,INVALID,124.292,VALID,322.109,VALID,21.3803,VALID,339,VALID,0,
2016-11-24, 16:36:04,VALID,918.038,VALID,0,INVALID,124.231,VALID,320.39,VALID,21.4177,VALID,359,VALID,0,
2016-11-24, 16:37:04,VALID,918.029,VALID,0,INVALID,123.972,VALID,347.035,VALID,21.4388,VALID,300,VALID,0.734766,
2016-11-24, 16:38:04,VALID,918.025,VALID,0,INVALID,123.393,VALID,364.44,VALID,21.3591,VALID,278,VALID,0.969922,
2016-11-24, 16:39:04,VALID,918.012,VALID,0,INVALID,123.225,VALID,369.598,VALID,21.3412,VALID,310,VALID,0.324219,
2016-11-24, 16:40:04,VALID,917.986,VALID,0,INVALID,123.53,VALID,374.325,VALID,21.3981,VALID,32,VALID,0,
2016-11-24, 16:41:04,VALID,917.976,VALID,0,INVALID,123.583,VALID,371.531,VALID,21.5152,VALID,269,VALID,0,
2016-11-24, 16:42:04,VALID,917.965,VALID,0,INVALID,123.24,VALID,357.779,VALID,21.5331,VALID,280,VALID,0,
2016-11-24, 16:43:04,VALID,917.965,VALID,0,INVALID,122.089,VALID,339.621,VALID,21.5542,VALID,358,VALID,0,
2016-11-24, 16:44:04,VALID,917.922,VALID,0,INVALID,121.38,VALID,317.703,VALID,21.5347,VALID,280,VALID,0.741406,
2016-11-24, 16:45:04,VALID,917.937,VALID,0,INVALID,121.784,VALID,309.538,VALID,21.5542,VALID,263,VALID,0,
2016-11-24, 16:46:04,VALID,917.916,VALID,0,INVALID,121.769,VALID,302.125,VALID,21.6144,VALID,360,VALID,0,
2016-11-24, 16:47:04,VALID,917.891,VALID,0,INVALID,122.318,VALID,295.356,VALID,21.6713,VALID,360,VALID,0,
2016-11-24, 16:48:04,VALID,917.881,VALID,0,INVALID,121.479,VALID,286.653,VALID,21.6908,VALID,349,VALID,0,
2016-11-24, 16:49:04,VALID,917.879,VALID,0,INVALID,121.776,VALID,277.306,VALID,21.7705,VALID,350,VALID,0,
2016-11-24, 16:50:04,VALID,917.844,VALID,0,INVALID,122.219,VALID,269.14,VALID,21.8664,VALID,354,VALID,0,
2016-11-24, 16:51:04,VALID,917.868,VALID,0,INVALID,119.329,VALID,261.512,VALID,21.7672,VALID,291,VALID,0,
2016-11-24, 16:52:04,VALID,917.822,VALID,0,INVALID,114.504,VALID,253.561,VALID,21.7087,VALID,280,VALID,0,
2016-11-24, 16:53:04,VALID,917.808,VALID,0,INVALID,111.957,VALID,246.685,VALID,21.6696,VALID,247,VALID,0,
2016-11-24, 16:54:04,VALID,917.771,VALID,0,INVALID,119.688,VALID,240.668,VALID,21.6891,VALID,257,VALID,0,
2016-11-24, 16:55:04,VALID,917.769,VALID,0,INVALID,116.73,VALID,235.941,VALID,21.6696,VALID,310,VALID,0,
2016-11-24, 16:56:04,VALID,917.758,VALID,0,INVALID,116.631,VALID,234.007,VALID,21.6111,VALID,317,VALID,0,
2016-11-24, 16:57:04,VALID,917.762,VALID,0,INVALID,120.801,VALID,235.511,VALID,21.6501,VALID,313,VALID,0,
2016-11-24, 16:58:04,VALID,917.77,VALID,0,INVALID,120.869,VALID,236.478,VALID,21.6696,VALID,349,VALID,0,
2016-11-24, 16:59:04,VALID,917.754,VALID,0,INVALID,120.839,VALID,238.197,VALID,21.629,VALID,8,VALID,0,
2016-11-24, 17:00:04,VALID,917.749,VALID,0,INVALID,121.876,VALID,239.379,VALID,21.7298,VALID,25,VALID,0,
2016-11-24, 17:01:04,VALID,917.75,VALID,0,INVALID,121.662,VALID,239.809,VALID,21.7087,VALID,1,VALID,0,
2016-11-24, 17:02:04,VALID,917.723,VALID,0,INVALID,122.577,VALID,241.42,VALID,21.8062,VALID,354,VALID,0,
2016-11-24, 17:03:04,VALID,917.725,VALID,0,INVALID,121.937,VALID,244.214,VALID,21.8062,VALID,336,VALID,0,
2016-11-24, 17:04:04,VALID,917.705,VALID,0,INVALID,122.028,VALID,247.115,VALID,21.8452,VALID,14,VALID,0,
2016-11-24, 17:05:04,VALID,917.687,VALID,0,INVALID,121.327,VALID,249.586,VALID,21.8647,VALID,10,VALID,0,
2016-11-24, 17:06:04,VALID,917.673,VALID,0,INVALID,120.923,VALID,254.85,VALID,21.8257,VALID,10,VALID,0,
2016-11-24, 17:07:04,VALID,917.681,VALID,0,INVALID,122.31,VALID,264.413,VALID,21.8842,VALID,33,VALID,0,
2016-11-24, 17:08:04,VALID,917.655,VALID,0,INVALID,122.257,VALID,273.867,VALID,21.9054,VALID,31,VALID,0,
2016-11-24, 17:09:04,VALID,917.629,VALID,0,INVALID,122.607,VALID,283.645,VALID,21.9623,VALID,24,VALID,0,
2016-11-24, 17:10:04,VALID,917.603,VALID,0,INVALID,123.126,VALID,292.455,VALID,22.0403,VALID,45,VALID,0,
2016-11-24, 17:11:04,VALID,917.564,VALID,0,INVALID,122.363,VALID,302.125,VALID,21.9818,VALID,40,VALID,0,
2016-11-24, 17:12:04,VALID,917.541,VALID,0,INVALID,122.409,VALID,304.918,VALID,21.9233,VALID,32,VALID,0,
2016-11-24, 17:13:04,VALID,917.53,VALID,0,INVALID,123.187,VALID,308.034,VALID,21.9428,VALID,360,VALID,0,
2016-11-24, 17:14:04,VALID,917.514,VALID,0,INVALID,122.302,VALID,309.968,VALID,21.8859,VALID,360,VALID,0,
2016-11-24, 17:15:04,VALID,917.504,VALID,0,INVALID,122.6,VALID,307.604,VALID,21.9038,VALID,36,VALID,0,
2016-11-24, 17:16:04,VALID,917.474,VALID,0,INVALID,121.144,VALID,303.199,VALID,21.8452,VALID,71,VALID,0,
2016-11-24, 17:17:04,VALID,917.477,VALID,0,INVALID,118.171,VALID,299.116,VALID,21.7282,VALID,55,VALID,1.26016,
2016-11-24, 17:18:04,VALID,917.476,VALID,0,INVALID,120.107,VALID,300.298,VALID,21.7282,VALID,18,VALID,1.05664,
2016-11-24, 17:19:04,VALID,917.446,VALID,0,INVALID,120.785,VALID,301.372,VALID,21.7867,VALID,22,VALID,0.908594,
2016-11-24, 17:20:04,VALID,917.395,VALID,0,INVALID,116.806,VALID,304.811,VALID,21.8062,VALID,3,VALID,0.720312,
2016-11-24, 17:21:04,VALID,917.406,VALID,0,INVALID,120.046,VALID,311.364,VALID,21.9233,VALID,45,VALID,0,
2016-11-24, 17:22:04,VALID,917.378,VALID,0,INVALID,112.888,VALID,315.555,VALID,22.0013,VALID,353,VALID,0,
2016-11-24, 17:23:04,VALID,917.349,VALID,0,INVALID,114.976,VALID,319.208,VALID,22.1184,VALID,79,VALID,0,
2016-11-24, 17:24:04,VALID,917.337,VALID,0,INVALID,114.389,VALID,325.869,VALID,22.0989,VALID,89,VALID,0,
2016-11-24, 17:25:04,VALID,917.349,VALID,0,INVALID,120.351,VALID,330.489,VALID,22.1362,VALID,156,VALID,0,
2016-11-24, 17:26:04,VALID,917.34,VALID,0,INVALID,120.244,VALID,335.539,VALID,22.1184,VALID,199,VALID,0,
2016-11-24, 17:27:04,VALID,917.341,VALID,0,INVALID,120.778,VALID,342.308,VALID,22.1752,VALID,198,VALID,0,
2016-11-24, 17:28:04,VALID,917.319,VALID,0,INVALID,120.671,VALID,355.63,VALID,22.2142,VALID,155,VALID,0,
2016-11-24, 17:29:04,VALID,917.335,VALID,0,INVALID,117.606,VALID,370.887,VALID,22.1769,VALID,158,VALID,0,
2016-11-24, 17:30:04,VALID,917.295,VALID,0,INVALID,120.069,VALID,381.738,VALID,22.1362,VALID,172,VALID,0,
2016-11-24, 17:31:04,VALID,917.262,VALID,0,INVALID,119.543,VALID,396.995,VALID,22.1167,VALID,159,VALID,0,
2016-11-24, 17:32:04,VALID,917.256,VALID,0,INVALID,120.427,VALID,397.962,VALID,22.2533,VALID,203,VALID,0,
2016-11-24, 17:33:04,VALID,917.226,VALID,0,INVALID,118.689,VALID,402.582,VALID,22.4306,VALID,198,VALID,0,
2016-11-24, 17:34:04,VALID,917.224,VALID,0,VALID,91.0312,VALID,402.582,VALID,22.5264,VALID,218,VALID,0,
2016-11-24, 17:35:04,VALID,917.203,VALID,0,VALID,93.6994,VALID,397.962,VALID,22.6435,VALID,201,VALID,0,
2016-11-24, 17:36:04,VALID,917.193,VALID,0,VALID,89.7429,VALID,403.979,VALID,22.7801,VALID,222,VALID,0,
2016-11-24, 17:37:04,VALID,917.21,VALID,0,VALID,88.0581,VALID,399.466,VALID,22.9167,VALID,218,VALID,0,
2016-11-24, 17:38:04,VALID,917.176,VALID,0,VALID,84.2387,VALID,396.243,VALID,22.9753,VALID,217,VALID,0,
2016-11-24, 17:39:04,VALID,917.182,VALID,0,VALID,86.0836,VALID,398.499,VALID,23.1119,VALID,197,VALID,0,
2016-11-24, 17:40:04,VALID,917.177,VALID,0,VALID,85.4966,VALID,402.582,VALID,23.1509,VALID,188,VALID,0,
2016-11-24, 17:41:04,VALID,917.166,VALID,0,VALID,84.5056,VALID,389.689,VALID,23.1899,VALID,185,VALID,0,
2016-11-24, 17:42:04,VALID,917.159,VALID,0,VALID,83.5526,VALID,386.788,VALID,23.3053,VALID,188,VALID,0,
2016-11-24, 17:43:04,VALID,917.141,VALID,0,VALID,80.0078,VALID,383.672,VALID,23.3638,VALID,189,VALID,0,
2016-11-24, 17:44:04,VALID,917.162,VALID,0,VALID,79.9696,VALID,374.218,VALID,23.4827,VALID,189,VALID,0,
2016-11-24, 17:45:04,VALID,917.14,VALID,0,VALID,78.8414,VALID,371.854,VALID,23.6406,VALID,189,VALID,0,
2016-11-24, 17:46:04,VALID,917.108,VALID,0,VALID,81.4943,VALID,373.68,VALID,23.7169,VALID,149,VALID,0,
2016-11-24, 17:47:04,VALID,917.091,VALID,0,VALID,80.793,VALID,376.044,VALID,23.756,VALID,77,VALID,0,
2016-11-24, 17:48:04,VALID,917.102,VALID,0,VALID,81.845,VALID,380.986,VALID,23.5803,VALID,129,VALID,0.834766,
2016-11-24, 17:49:04,VALID,917.072,VALID,0,VALID,81.2885,VALID,388.4,VALID,23.4241,VALID,134,VALID,0.896484,
2016-11-24, 17:50:04,VALID,917.025,VALID,0,VALID,83.7585,VALID,397.962,VALID,23.4437,VALID,107,VALID,0.09375,
2016-11-24, 17:51:04,VALID,917.007,VALID,0,VALID,83.2553,VALID,412.037,VALID,23.4632,VALID,113,VALID,0,
2016-11-24, 17:52:04,VALID,916.971,VALID,0,VALID,82.0661,VALID,424.07,VALID,23.4064,VALID,141,VALID,0,
2016-11-24, 17:53:04,VALID,916.951,VALID,0,VALID,81.9593,VALID,443.195,VALID,23.307,VALID,105,VALID,0,
2016-11-24, 17:54:04,VALID,916.95,VALID,0,VALID,86.5105,VALID,432.021,VALID,23.268,VALID,108,VALID,0,
2016-11-24, 17:55:04,VALID,916.918,VALID,0,VALID,86.1751,VALID,432.343,VALID,23.3656,VALID,113,VALID,0,
2016-11-24, 17:56:04,VALID,916.924,VALID,0,VALID,81.5477,VALID,437.93,VALID,23.3851,VALID,79,VALID,0,
2016-11-24, 17:57:04,VALID,916.917,VALID,0,VALID,85.9693,VALID,440.079,VALID,23.4241,VALID,27,VALID,0,
2016-11-24, 17:58:04,VALID,916.929,VALID,0,VALID,83.3544,VALID,442.872,VALID,23.5608,VALID,28,VALID,0,
2016-11-24, 17:59:04,VALID,916.885,VALID,0,VALID,82.9428,VALID,441.046,VALID,23.7755,VALID,5,VALID,0,
2016-11-24, 18:00:04,VALID,916.893,VALID,0,VALID,79.6418,VALID,428.905,VALID,23.8731,VALID,255,VALID,0,
2016-11-24, 18:01:04,VALID,916.908,VALID,0,VALID,80.7091,VALID,428.69,VALID,23.756,VALID,250,VALID,0,
2016-11-24, 18:02:04,VALID,916.904,VALID,0,VALID,82.7598,VALID,424.715,VALID,23.7932,VALID,248,VALID,0,
2016-11-24, 18:03:04,VALID,916.863,VALID,0,VALID,82.3558,VALID,423.318,VALID,23.9493,VALID,248,VALID,0,
2016-11-24, 18:04:04,VALID,916.838,VALID,0,VALID,83.019,VALID,422.673,VALID,24.125,VALID,248,VALID,0,
2016-11-24, 18:05:04,VALID,916.827,VALID,0,VALID,81.5248,VALID,425.36,VALID,24.2421,VALID,239,VALID,0,
2016-11-24, 18:06:04,VALID,916.83,VALID,0,VALID,80.4194,VALID,425.897,VALID,24.2031,VALID,264,VALID,0,
2016-11-24, 18:07:04,VALID,916.799,VALID,0,VALID,80.6024,VALID,419.128,VALID,24.0079,VALID,241,VALID,0.955859,
2016-11-24, 18:08:04,VALID,916.77,VALID,0,VALID,82.2948,VALID,420.202,VALID,23.8926,VALID,296,VALID,0.813672,
2016-11-24, 18:09:04,VALID,916.775,VALID,0,VALID,81.0598,VALID,413.863,VALID,23.8322,VALID,247,VALID,1.28203,
2016-11-24, 18:10:04,VALID,916.767,VALID,0,VALID,81.6392,VALID,404.194,VALID,23.6352,VALID,256,VALID,0,
2016-11-24, 18:11:04,VALID,916.761,VALID,0,VALID,83.789,VALID,393.235,VALID,23.4614,VALID,255,VALID,0,
2016-11-24, 18:12:04,VALID,916.763,VALID,0,VALID,83.7356,VALID,382.598,VALID,23.323,VALID,267,VALID,0,
2016-11-24, 18:13:04,VALID,916.74,VALID,0,VALID,85.1002,VALID,372.391,VALID,23.4028,VALID,242,VALID,0,
2016-11-24, 18:14:04,VALID,916.755,VALID,0,VALID,84.9325,VALID,360.787,VALID,23.5182,VALID,231,VALID,0,
2016-11-24, 18:15:04,VALID,916.729,VALID,0,VALID,83.2858,VALID,352.622,VALID,23.5767,VALID,253,VALID,0,
2016-11-24, 18:16:04,VALID,916.745,VALID,0,VALID,83.4459,VALID,345.961,VALID,23.5803,VALID,221,VALID,0,
2016-11-24, 18:17:04,VALID,916.761,VALID,0,VALID,82.3176,VALID,340.696,VALID,23.6193,VALID,258,VALID,0,
2016-11-24, 18:18:04,VALID,916.723,VALID,0,VALID,83.1562,VALID,336.935,VALID,23.4028,VALID,252,VALID,0,
2016-11-24, 18:19:04,VALID,916.712,VALID,0,VALID,84.8715,VALID,334.249,VALID,23.2875,VALID,245,VALID,0,
2016-11-24, 18:20:04,VALID,916.71,VALID,0,VALID,84.3074,VALID,332.208,VALID,23.1882,VALID,262,VALID,0,
2016-11-24, 18:21:04,VALID,916.706,VALID,0,VALID,84.8944,VALID,330.167,VALID,23.1704,VALID,252,VALID,0,
2016-11-24, 18:22:04,VALID,916.675,VALID,0,VALID,84.5437,VALID,330.059,VALID,23.1704,VALID,246,VALID,0,
2016-11-24, 18:23:04,VALID,916.648,VALID,0,VALID,85.7024,VALID,330.919,VALID,23.1882,VALID,250,VALID,0,
2016-11-24, 18:24:04,VALID,916.659,VALID,0,VALID,86.1141,VALID,332.53,VALID,23.2094,VALID,255,VALID,0,
2016-11-24, 18:25:04,VALID,916.646,VALID,0,VALID,86.9374,VALID,335.216,VALID,23.2857,VALID,247,VALID,0,
2016-11-24, 18:26:04,VALID,916.646,VALID,0,VALID,84.1244,VALID,338.977,VALID,23.268,VALID,252,VALID,0,
2016-11-24, 18:27:04,VALID,916.614,VALID,0,VALID,84.1778,VALID,344.564,VALID,23.2077,VALID,252,VALID,0,
2016-11-24, 18:28:04,VALID,916.595,VALID,0,VALID,84.902,VALID,350.903,VALID,23.1687,VALID,267,VALID,0,
2016-11-24, 18:29:04,VALID,916.575,VALID,0,VALID,83.9414,VALID,348.109,VALID,23.2272,VALID,257,VALID,0,
2016-11-24, 18:30:04,VALID,916.554,VALID,0,VALID,84.4751,VALID,346.605,VALID,23.2662,VALID,246,VALID,0,
2016-11-24, 18:31:04,VALID,916.578,VALID,0,VALID,83.6899,VALID,345.961,VALID,23.2094,VALID,244,VALID,0,
2016-11-24, 18:32:04,VALID,916.573,VALID,0,VALID,84.2159,VALID,345.423,VALID,23.2272,VALID,287,VALID,0,
2016-11-24, 18:33:04,VALID,916.556,VALID,0,VALID,82.8055,VALID,345.101,VALID,23.3053,VALID,250,VALID,0,
2016-11-24, 18:34:04,VALID,916.532,VALID,0,VALID,81.2199,VALID,345.531,VALID,23.3833,VALID,253,VALID,0,
2016-11-24, 18:35:04,VALID,916.524,VALID,0,VALID,83.8881,VALID,345.423,VALID,23.4028,VALID,262,VALID,0,
2016-11-24, 18:36:04,VALID,916.516,VALID,0,VALID,81.845,VALID,344.886,VALID,23.3833,VALID,248,VALID,0,
2016-11-24, 18:37:04,VALID,916.546,VALID,0,VALID,84.071,VALID,345.746,VALID,23.3443,VALID,253,VALID,0,
2016-11-24, 18:38:04,VALID,916.511,VALID,0,VALID,82.3939,VALID,347.787,VALID,23.3053,VALID,245,VALID,0,
2016-11-24, 18:39:04,VALID,916.53,VALID,0,VALID,81.9288,VALID,350.366,VALID,23.2857,VALID,251,VALID,0,
2016-11-24, 18:40:04,VALID,916.482,VALID,0,VALID,83.4459,VALID,353.589,VALID,23.2467,VALID,257,VALID,0.028125,
2016-11-24, 18:41:04,VALID,916.528,VALID,0,VALID,84.0329,VALID,355.093,VALID,23.229,VALID,265,VALID,1.15977,
2016-11-24, 18:42:04,VALID,916.464,VALID,0,VALID,83.9948,VALID,352.729,VALID,23.1509,VALID,240,VALID,0.621094,
2016-11-24, 18:43:04,VALID,916.483,VALID,0,VALID,85.5576,VALID,347.357,VALID,23.1687,VALID,257,VALID,0.346484,
2016-11-24, 18:44:04,VALID,916.459,VALID,0,VALID,83.8042,VALID,339.407,VALID,23.1882,VALID,246,VALID,0,
2016-11-24, 18:45:04,VALID,916.451,VALID,0,VALID,87.593,VALID,330.704,VALID,23.268,VALID,275,VALID,0,
2016-11-24, 18:46:04,VALID,916.443,VALID,0,VALID,84.5742,VALID,321.571,VALID,23.2662,VALID,238,VALID,0,
2016-11-24, 18:47:04,VALID,916.425,VALID,0,VALID,85.8778,VALID,313.084,VALID,23.268,VALID,263,VALID,0.966406,
2016-11-24, 18:48:04,VALID,916.409,VALID,0,VALID,86.2132,VALID,304.703,VALID,23.2875,VALID,243,VALID,0,
2016-11-24, 18:49:04,VALID,916.38,VALID,0,VALID,85.9693,VALID,297.505,VALID,23.2857,VALID,262,VALID,0.383984,
2016-11-24, 18:50:04,VALID,916.384,VALID,0,VALID,86.5334,VALID,291.38,VALID,23.3461,VALID,275,VALID,0,
2016-11-24, 18:51:04,VALID,916.379,VALID,0,VALID,84.4827,VALID,285.256,VALID,23.3656,VALID,251,VALID,0,
2016-11-24, 18:52:04,VALID,916.345,VALID,0,VALID,84.3836,VALID,279.669,VALID,23.3265,VALID,263,VALID,0,
2016-11-24, 18:53:04,VALID,916.339,VALID,0,VALID,84.5742,VALID,274.19,VALID,23.2662,VALID,236,VALID,0,
2016-11-24, 18:54:04,VALID,916.322,VALID,0,VALID,85.7024,VALID,269.355,VALID,23.2857,VALID,238,VALID,0,
2016-11-24, 18:55:04,VALID,916.325,VALID,0,VALID,83.4764,VALID,265.595,VALID,23.2467,VALID,242,VALID,0,
2016-11-24, 18:56:04,VALID,916.264,VALID,0,VALID,84.1778,VALID,262.694,VALID,23.2485,VALID,229,VALID,0,
2016-11-24, 18:57:04,VALID,916.286,VALID,0,VALID,85.4204,VALID,260.867,VALID,23.2662,VALID,206,VALID,0,
2016-11-24, 18:58:04,VALID,916.26,VALID,0,VALID,85.3136,VALID,259.793,VALID,23.3248,VALID,227,VALID,0,
2016-11-24, 18:59:04,VALID,916.267,VALID,0,VALID,84.2006,VALID,259.47,VALID,23.3053,VALID,287,VALID,0,
2016-11-24, 19:00:04,VALID,916.229,VALID,0,VALID,84.6885,VALID,259.685,VALID,23.307,VALID,289,VALID,0,
2016-11-24, 19:01:04,VALID,916.219,VALID,0,VALID,84.8944,VALID,260.222,VALID,23.3265,VALID,256,VALID,0,
2016-11-24, 19:02:04,VALID,916.172,VALID,0,VALID,84.132,VALID,261.512,VALID,23.2875,VALID,253,VALID,0,
2016-11-24, 19:03:04,VALID,916.179,VALID,0,VALID,85.2527,VALID,263.446,VALID,23.3265,VALID,252,VALID,0,
2016-11-24, 19:04:04,VALID,916.179,VALID,0,VALID,83.5984,VALID,265.702,VALID,23.4241,VALID,263,VALID,0,
2016-11-24, 19:05:04,VALID,916.171,VALID,0,VALID,84.7648,VALID,268.388,VALID,23.4614,VALID,262,VALID,0,
2016-11-24, 19:06:04,VALID,916.136,VALID,0,VALID,82.9199,VALID,272.148,VALID,23.5022,VALID,252,VALID,0,
2016-11-24, 19:07:04,VALID,916.146,VALID,0,VALID,85.0316,VALID,277.306,VALID,23.5022,VALID,264,VALID,0,
2016-11-24, 19:08:04,VALID,916.132,VALID,0,VALID,83.8576,VALID,283.86,VALID,23.4809,VALID,241,VALID,0,
2016-11-24, 19:09:04,VALID,916.106,VALID,0,VALID,87.2957,VALID,292.133,VALID,23.5395,VALID,241,VALID,0,
2016-11-24, 19:10:04,VALID,916.105,VALID,0,VALID,87.6312,VALID,301.48,VALID,23.5998,VALID,241,VALID,0,
2016-11-24, 19:11:04,VALID,916.056,VALID,0,VALID,83.4307,VALID,312.224,VALID,23.6388,VALID,250,VALID,0,
2016-11-24, 19:12:04,VALID,916.05,VALID,0,VALID,81.4638,VALID,324.472,VALID,23.5608,VALID,254,VALID,0,
2016-11-24, 19:13:04,VALID,916.032,VALID,0,VALID,82.7674,VALID,336.613,VALID,23.5022,VALID,252,VALID,0,
2016-11-24, 19:14:04,VALID,916.023,VALID,0,VALID,85.0392,VALID,348.754,VALID,23.4827,VALID,256,VALID,0,
2016-11-24, 19:15:04,VALID,915.995,VALID,0,VALID,84.2921,VALID,359.498,VALID,23.4419,VALID,244,VALID,0,
2016-11-24, 19:16:04,VALID,915.975,VALID,0,VALID,84.3455,VALID,371.639,VALID,23.4028,VALID,282,VALID,0,
2016-11-24, 19:17:04,VALID,915.999,VALID,0,VALID,87.2805,VALID,382.491,VALID,23.4614,VALID,277,VALID,0,
2016-11-24, 19:18:04,VALID,915.952,VALID,0,VALID,91.2447,VALID,392.805,VALID,23.598,VALID,275,VALID,0,
2016-11-24, 19:19:04,VALID,915.959,VALID,0,VALID,87.2729,VALID,403.012,VALID,23.7151,VALID,269,VALID,0,
2016-11-24, 19:20:04,VALID,915.934,VALID,0,VALID,88.7213,VALID,415.905,VALID,23.8536,VALID,241,VALID,0,
2016-11-24, 19:21:04,VALID,915.919,VALID,0,VALID,84.0863,VALID,434.707,VALID,24.0097,VALID,217,VALID,0,
2016-11-24, 19:22:04,VALID,915.913,VALID,0,VALID,83.8881,VALID,459.418,VALID,24.1073,VALID,240,VALID,0.293359,
2016-11-24, 19:23:04,VALID,915.905,VALID,0,VALID,83.019,VALID,490.254,VALID,24.0683,VALID,258,VALID,0,
2016-11-24, 19:24:04,VALID,915.894,VALID,0,VALID,83.8195,VALID,505.94,VALID,24.1445,VALID,256,VALID,0,